Temp
46 43 43 43 43 43 43 44 45 47 52 52 52 52 53 52 52 54 53 53 52 51
45 44 43 43 43 43 44 47 46 46 47 51 52 53 52 51 51 52 51 50 48 49
45 44 44 43 42 43 44 44 45 45 46 48 50 52 52 52 53 52 52 50 48 48
45 45 44 43 43 43 43 44 44 45 45 47 49 49 46 45 47 49 50 51 50 50
45 44 43 42 43 43 43 44 44 45 45 46 46 47 50 48 49 48 47 45 47 48
44 43 42 42 43 44 43 43 43 44 43 44 44 44 44 43 45 47 46 45 45 46
43 43 42 43 43 43 43 42 42 42 42 43 43 43 42 42 40 39 41 41 42 42
43 43 42 42 43 43 43 43 42 42 42 42 43 45 41 41 38 38 39 40 42 45
43 43 42 42 42 42 41 41 41 41 41 40 44 47 47 45 40 40 39 39 41 46
43 42 42 42 42 41 40 40 39 39 39 39 39 45 46 46 40 39 38 39 41 43
42 42 42 41 40 39 39 38 38 38 38 37 39 44 45 45 39 37 37 38 41 42
43 41 41 39 39 38 37 37 37 38 37 36 37 42 44 42 37 36 36 38 39 41
43 41 40 39 38 37 37 37 37 35 34 37 36 41 43 41 36 34 35 36 37 42
41 40 40 39 37 37 36 35 34 34 34 34 35 35 42 43 37 35 34 34 34 36
MSLP
1016.51 1016.71 1016.80 1016.83 1016.69 1016.61 1016.45 1016.18 1015.98 1015.75 1015.44 1015.22 1014.98 1014.82 1014.66 1014.49 1014.17 1013.81 1013.50 1013.23 1013.12 1012.97
1016.17 1016.38 1016.50 1016.38 1016.31 1016.14 1015.93 1015.72 1015.52 1015.35 1015.16 1014.90 1014.75 1014.58 1014.39 1014.17 1013.89 1013.62 1013.35 1013.19 1013.02 1012.72
1015.78 1015.93 1015.99 1016.07 1016.09 1015.97 1015.73 1015.53 1015.36 1015.22 1015.01 1014.78 1014.56 1014.33 1014.05 1013.76 1013.44 1013.22 1012.98 1012.78 1012.70 1012.42
1015.42 1015.50 1015.63 1015.74 1015.68 1015.58 1015.40 1015.25 1015.14 1014.94 1014.73 1014.51 1014.33 1014.17 1014.03 1013.84 1013.55 1013.23 1012.90 1012.65 1012.38 1012.17
1014.91 1015.08 1015.24 1015.29 1015.20 1015.11 1015.07 1014.93 1014.86 1014.74 1014.59 1014.40 1014.13 1013.87 1013.73 1013.59 1013.47 1013.23 1013.05 1012.89 1012.52 1012.15
1014.72 1014.86 1014.90 1014.86 1014.79 1014.71 1014.61 1014.54 1014.45 1014.37 1014.29 1014.12 1013.90 1013.74 1013.57 1013.42 1013.17 1012.82 1012.95 1012.93 1012.69 1012.37
1014.42 1014.48 1014.47 1014.41 1014.40 1014.40 1014.36 1014.29 1014.16 1014.00 1013.89 1013.76 1013.60 1013.42 1013.26 1013.21 1013.18 1013.14 1012.85 1012.71 1012.49 1012.22
1013.87 1013.95 1013.99 1014.02 1013.99 1013.95 1013.93 1013.84 1013.75 1013.64 1013.48 1013.38 1013.27 1013.05 1012.97 1012.99 1013.00 1012.92 1012.79 1012.51 1012.05 1011.56
1013.40 1013.42 1013.42 1013.42 1013.40 1013.36 1013.33 1013.33 1013.32 1013.22 1013.12 1013.00 1012.84 1012.62 1012.49 1012.43 1012.57 1012.64 1012.32 1012.18 1011.75 1011.08
1013.03 1012.98 1012.91 1012.89 1012.98 1013.00 1012.98 1012.90 1012.88 1012.81 1012.74 1012.63 1012.51 1012.38 1012.24 1012.12 1012.15 1012.30 1012.22 1011.77 1011.28 1010.78
1012.82 1012.69 1012.50 1012.54 1012.56 1012.51 1012.51 1012.57 1012.52 1012.46 1012.33 1012.21 1012.03 1011.87 1011.75 1011.66 1011.60 1011.69 1011.64 1011.44 1010.96 1010.42
1012.49 1012.30 1012.21 1012.13 1012.05 1011.97 1012.01 1011.99 1011.91 1011.76 1011.68 1011.59 1011.29 1011.29 1011.18 1011.13 1011.21 1011.18 1011.06 1010.88 1010.52 1010.15
1012.14 1011.98 1011.78 1011.56 1011.45 1011.32 1011.34 1011.19 1011.14 1011.07 1011.12 1011.10 1010.95 1010.85 1010.74 1010.72 1010.78 1010.71 1010.59 1010.39 1010.04 1009.75
1011.86 1011.68 1011.41 1011.13 1010.98 1010.85 1010.79 1010.63 1010.48 1010.30 1010.09 1009.99 1009.93 1009.75 1009.58 1009.58 1009.68 1009.79 1009.83 1009.79 1009.60 1009.40
Wind_Speed
7 4 4 5 4 4 4 4 4 5 5 5 6 6 6 5 5 6 5 7 6 6
6 6 6 7 5 4 5 4 6 5 6 6 7 7 7 5 6 6 6 6 5 6
6 6 6 5 6 6 6 5 5 6 5 6 6 7 6 6 6 7 7 5 4 5
6 6 6 5 6 6 5 6 6 6 6 5 6 7 5 5 7 7 6 6 7 8
6 6 6 6 6 6 6 6 6 6 6 6 6 5 7 9 8 9 9 6 8 9
6 6 6 6 6 6 5 6 5 5 5 5 5 5 6 5 6 6 4 7 9 10
6 6 6 6 6 6 5 6 5 5 6 5 5 5 5 3 4 5 5 6 6 8
6 6 6 6 6 6 5 6 6 6 6 6 5 4 3 3 4 5 6 6 8 10
6 6 6 6 6 6 6 6 5 6 5 5 5 9 11 9 3 5 5 8 10 8
6 6 7 6 6 7 6 5 6 6 6 6 6 10 12 12 3 4 6 8 9 7
6 7 6 6 7 7 5 6 6 6 6 6 6 11 11 12 5 5 6 8 9 6
6 7 7 7 8 6 5 6 7 6 7 7 7 12 12 10 5 5 6 7 7 5
7 6 7 8 7 5 5 7 5 6 6 9 8 11 13 10 4 6 5 5 6 11
7 7 7 7 4 5 6 6 6 7 7 8 9 10 15 16 6 6 5 5 5 4
Wind_Direction
226 231 245 249 258 259 250 257 271 277 287 284 285 284 288 291 291 298 308 291 286 274
227 240 245 255 259 262 265 249 248 271 275 275 274 272 272 272 283 296 301 297 283 281
224 233 240 254 263 269 275 265 262 269 280 296 297 295 295 287 281 289 293 278 306 303
232 232 243 246 259 264 273 272 269 262 260 262 282 295 302 309 307 311 306 312 312 312
232 232 240 247 255 261 265 278 278 281 281 280 279 281 297 302 305 298 306 321 322 316
243 248 254 256 258 261 262 270 282 287 289 289 291 300 299 287 292 284 321 323 314 312
252 255 260 262 260 263 270 276 277 276 275 276 282 284 287 301 322 320 307 284 283 286
248 252 257 259 257 261 264 262 267 274 276 277 280 271 246 263 283 290 289 284 278 271
252 257 253 255 254 254 254 257 262 264 264 270 271 273 282 287 256 277 275 287 288 293
253 254 251 248 251 253 254 251 255 257 261 264 265 278 285 287 258 274 281 279 288 294
264 260 261 253 250 253 242 247 253 254 255 260 261 272 279 278 254 259 273 275 282 275
279 266 261 255 251 245 238 241 244 234 243 245 249 258 265 269 251 249 262 274 273 263
299 275 268 261 256 240 228 244 231 245 237 251 264 262 268 265 237 250 257 262 267 284
288 281 268 272 248 250 246 249 242 244 237 232 234 244 247 243 226 229 241 246 255 258